Regional Weather Roundup
Issued by NWS Upton, NY

Current Version | Previous Version | Graphics & Text | Print | Product List | Glossary Off
Versions: 1 2 3 4 5 6 7 8 9 10 11 12 13 14 15 16 17 18 19 20 21 22 23 24 25 26 27

000
ASUS41 KOKX 211605
RWROKX

Regional Weather Roundup
National Weather Service New York NY
1200 PM EDT SAT APR 21 2018

Note: "FAIR" indicates few or no clouds below 12,000 feet with no
significant weather and/or obstructions to visibility.

NYZ071-072-176-178-NJZ106-104-211700-
New York City Metro Area

CITY           SKY/WX    TMP DP  RH WIND       PRES   REMARKS
Central Park   FAIR      54  21  27 W9G16     30.40F
Bronx Bot Gard   N/A     54  25  32 W7        30.39
Bronx Lehman C   N/A     54  23  30 NW10        N/A
LaGuardia Arpt FAIR      54  24  31 NW12G18   30.37F
Queens College   N/A     52  25  35 NW12        N/A
Kennedy Intl   FAIR      55  24  30 NW16G23   30.39F
Breezy Point     N/A     52 N/A N/A W7G14       N/A
Brooklyn Coll    N/A     52  25  35 W8G20       N/A
Staten Island    N/A     54  25  32 W12         N/A
Newark/Liberty PTSUNNY   56  26  31 NW8G21    30.38F
Teterboro      FAIR      54  25  32 NW16G28   30.37F
$$

NYZ177-179-078>081-211700-
Long Island New York

CITY           SKY/WX    TMP DP  RH WIND       PRES   REMARKS
Jones Beach      N/A     50 N/A N/A NW14G20     N/A
Wantagh          N/A     52  23  32 NW12        N/A
Hempstead        N/A     52  27  37 N12       30.40
Matinecock Pt    N/A     52 N/A N/A NW14        N/A
Farmingdale    FAIR      53  25  33 W14       30.37F
MacArthur/ISP  FAIR      54  23  30 NW14      30.35F
Stony Brook      N/A     50  28  43 W9          N/A
Shirley        FAIR      55  27  34 NW13      30.36F
Mt Sinai Harb    N/A    N/A N/A N/A W7G13       N/A
Westhampton    FAIR      53  21  28 NW14G23   30.37F
East Hampton   FAIR      50  24  36 NW13      30.34F
Southold         N/A     50  32  50 W8          N/A
Montauk          N/A     50  33  52 W12       30.35F
$$

NYZ052-065-067-211700-
Hudson Valley

CITY           SKY/WX    TMP DP  RH WIND       PRES   REMARKS
White Plains   FAIR      51  23  33 W15       30.35F
Larchmont Harb   N/A     48 N/A N/A W13         N/A
Croton On Huds   N/A     50 N/A N/A SW6         N/A
Somers           N/A     50  27  40 W9          N/A
Brewster         N/A     52  25  35 NW9         N/A
Newburgh       SUNNY     52  28  40 SW8       30.37F
Montgomery     FAIR      53  25  33 VRB3      30.35F
Otisville        N/A     50  27  40 N9          N/A
Warwick          N/A     50  28  43 NW8         N/A
Suffern          N/A     50  25  37 W12         N/A
Poughkeepsie   FAIR      53  23  31 NW14G22   30.35F
Albany         FAIR      52  24  33 W13       30.36F
$$

NJZ001-105-106-008-010-013-015-019>022-104-211700-
New Jersey

CITY           SKY/WX    TMP DP  RH WIND       PRES   REMARKS
Newark/Liberty PTSUNNY   56  26  31 NW8G21    30.38F
Teterboro      FAIR      54  25  32 NW16G28   30.37F
Caldwell       FAIR      53  21  28 NW13G18   30.39F
Somerville     FAIR      54  25  32 VRB6G16   30.39F
Linden         FAIR      55  25  31 NW8G22    30.39F
Perth Amboy      N/A     50 N/A N/A NW14G22     N/A
Sussex         FAIR      52  26  36 W10       30.38F
Andover          N/A     51  26  37 S7        30.38F
Trenton        FAIR      54  27  35 W12       30.41F
Millville      FAIR      54  25  32 N12G20    30.43F
Atlantic City  FAIR      55  26  32 W12G18    30.42F
Wrightstown    FAIR      55  25  31 NW7       30.39
Toms River     FAIR      56  26  31 W9G16     30.41F
Belmar         FAIR      54  24  31 W15       30.40F
$$

PAZ047>061-062-071-211700-
Eastern Pennsylvania

CITY           SKY/WX    TMP DP  RH WIND       PRES   REMARKS
Philadelphia   PTSUNNY   53  23  31 W10       30.44F
Allentown      FAIR      53  26  35 W9        30.41F
Scranton       FAIR      50  26  39 NW10      30.41F
$$

CTZ002-004>006-009-010-012-RIZ004-006-007-MAZ004-011-015-211700-
Southern New England

 In CT

CITY           SKY/WX    TMP DP  RH WIND       PRES   REMARKS
Bradley Intl   FAIR      54  21  27 NW12G23   30.31F
Hartford       FAIR      53  26  35 NW12G20   30.33F
Danbury        FAIR      50  25  37 N13G20    30.36F
Wtrbury/Oxford FAIR      50  24  36 NW14      30.33F
Norwalk Harbor   N/A     48 N/A N/A W12G17      N/A
Bridgeport     FAIR      55  22  27 NW10      30.34F
Meriden        FAIR      52  22  30 N14       30.33F
New Haven      FAIR      53  24  32 NW13G20   30.34F
Chester        FAIR      54  21  28 W9G17     30.31F
Groton         FAIR      54  24  31 NW8G18    30.31F
Willimantic    FAIR      53  26  35 NW12G23   30.32F

 In RI

CITY           SKY/WX    TMP DP  RH WIND       PRES   REMARKS
Providence     FAIR      54  26  34 NW14G22   30.30F
Block Island   FAIR      49  32  52 W14       30.33F
Westerly       FAIR      55  24  30 W9G17     30.32F

In MA

CITY           SKY/WX    TMP DP  RH WIND       PRES   REMARKS
Boston         FAIR      53  23  31 NW13G21   30.27F
Worcester      FAIR      49  23  36 W12       30.27F
Westfield      FAIR      53  22  29 W9G24     30.31F
Provincetown   FAIR      48  34  58 NW10      30.29S
Nantucket      FAIR      50  27  40 NW12      30.29F
$$

ANZ330-335-338-340-345-350-353-355-211700-
Coastal Marine Observations


STATION/POSITION TIME  SKY/WX   TEMP    WIND        PRES    VSBY  WAVE
                                AIR SEA DIR/SP/G                  HT/PER
                 (UTC)          (F)     (DEG/KT/KT) (MB)    (MI)  (FT/S)
NY Harb Entrance 1550            45 44  280/  8/ 10 1029.4          1/ 3
20 S Fire Island 1550            44 43  280/ 12/ 14 1029.1          2/ 4
23 SSW Montauk P 1550            43 42  280/ 10/ 12 1028.0          2/ 4
15 E Barnegat Li 1530               44                N/A           2/ 4
Hudson Canyon    1550            44 45  310/ 12/ 14 1029.1          3/ 5
Kings Point      1548               45                N/A
Execution Rocks  NOT AVBL
Western LI Sound NOT AVBL
Central LI Sound 1530            44     260/  8/ 10   N/A           1
Robbins Reef     1536            50     320/  7/ 14 1029.8
$$


>>>>>>>>>>>>>>>>>>>>>>>>>>>> KEY <<<<<<<<<<<<<<<<<<<<<<<<<<<
>                                                          <
>     SKY/WX - Sky Condition/Present Weather               <
>     TMP    - Temperature in Fahrenheit                   <
>     DP     - Dew Point in Fahrenheit                     <
>     RH     - Relative Humidity in Percent                <
>     WIND   - Direction (from) and Speed in MPH           <
>     PRES   - Mean Sea Level Pressure (inches of Hg)      <
>     WCI    - Wind Chill Index                            <
>     VSB    - Visibility in Miles                         <
>     HX     - Heat Index                                  <
>     TC     - Temperature in Celsius                      <
>     VRB    - Varibale Wind Direction                     <
>                                                          <
>>>>>>>>>>>>>>>>>>>>>>>>>>>> KEY <<<<<<<<<<<<<<<<<<<<<<<<<<<




USA.gov is the U.S. government's official web portal to all federal, state and local government web resources and services.